Find Kosmos-2482

NORAD ID: 39057 Int'l Des: 2013-001 Owner: VVKO Country: RU operational
LEOCIRCULARPOLAR

Live Position

Loading 3D Globe...

About Kosmos-2482

Description loading...

Upcoming Passes

Passes for default location (London). Set your location on the main map for personalized predictions.

Altitude History

Loading altitude history...

Two-Line Element Set

1 39057U 13001A 26104.61347763 .00000036 00000-0 18450-3 0 9999
2 39057 82.4943 259.9082 0028094 161.9193 198.2892 12.42994593600816
Epoch: Apr 14, 2026 • Age: 7 hours

Current Status

Altitude 1527.5 km
Velocity 7.10 km/s
Sub-Earth Point -81.15°S, 35.05°W
Launch Date Jan 15, 2013
Age 13.2 years
Type other

Technical Details

Classification Payload
Mass 280.00 kg
Dry Mass 280.00 kg
Total Mass 280.00 kg
Length 1.60 m
Diameter 0.80 m
Span 7.00 m
Shape Cyl + Ant
Manufacturer RESH
Bus Type Strela-3M
Phase Status In Orbit
Owner/State VVKO/RU

Most Searched